Weather History for Seretse Khama, Botswana

Change the Weather History Date:

Saturday, March 2, 2013

  Actual Average Record
Temperature  
Mean Temperature 72 °F -  
Max Temperature 84 °F 83 °F 98 °F (1998)
Min Temperature 60 °F 62 °F 59 °F (2001)
Cooling Degree Days 7    
Growing Degree Days 22 (Base 50)    
Moisture  
Dew Point 58 °F    
Average Humidity 68    
Maximum Humidity 94    
Minimum Humidity 33    
Precipitation  
Precipitation 0.00 in - - ()
Sea Level Pressure  
Sea Level Pressure 30.11 in    
Wind  
Wind Speed 5 mph ()    
Max Wind Speed 13 mph    
Max Gust Speed -    
Visibility 6.2 miles    
Events      
Averages and records for this station are not official NWS values.
T = Trace of Precipitation, MM = Missing Value Source: Averaged Metar Reports

Daily Weather History Graph

Daily Weather History Graph

Search for Another Location

Airport:

Trip Planner

Search our weather history database for the weather conditions in past years. The results will help you decide how hot, cold, wet, or windy it might be!

Date:

Astronomy

Mar. 02, 2013 Rise Set
Actual Time 6:11 AM CAT 6:44 PM CAT
Civil Twilight 5:48 AM CAT 7:07 PM CAT
Nautical Twilight 5:21 AM CAT 7:34 PM CAT
Astronomical Twilight 4:54 AM CAT 8:02 PM CAT
Moon 9:53 PM CAT (3/2) 10:26 AM CAT (3/2)
Length of Visible Light 13h 19m
Length of Day
12h 33m
Waning Gibbous, 77% of the Moon is Illuminated
Mar 2
Waning Gibbous
Mar 4
Last Quarter
Mar 11
New
Mar 19
First Quarter
Mar 27
Full

Hourly Weather History & Observations

Time (CAT) Temp. Heat Index Dew Point Humidity Pressure Visibility Wind Dir Wind Speed Gust Speed Precip Events Conditions
12:00 AM 62.6 °F - 60.8 °F 94% 30.12 in 6.2 mi East 3.5 mph - N/A   Scattered Clouds
1:00 AM 62.6 °F - 60.8 °F 94% 30.12 in 6.2 mi East 6.9 mph - N/A   Scattered Clouds
2:00 AM 62.6 °F - 59.0 °F 88% 30.09 in - SE 4.6 mph - N/A   Clear
3:00 AM 60.8 °F - 59.0 °F 94% 30.09 in - ESE 4.6 mph - N/A   Clear
4:00 AM 60.8 °F - 59.0 °F 94% 30.12 in - Variable 1.2 mph - N/A   Clear
5:00 AM 60.8 °F - 57.2 °F 88% 30.12 in - Variable 1.2 mph - N/A   Clear
6:00 AM 60.8 °F - 59.0 °F 94% 30.12 in 6.2 mi Variable 1.2 mph - N/A   Partly Cloudy
7:00 AM 62.6 °F - 59.0 °F 88% 30.15 in 6.2 mi Variable 1.2 mph - N/A   Partly Cloudy
8:00 AM 64.4 °F - 59.0 °F 83% 30.15 in 6.2 mi SE 5.8 mph - N/A   Mostly Cloudy
9:00 AM 68.0 °F - 60.8 °F 78% 30.18 in 6.2 mi ESE 5.8 mph - N/A   Partly Cloudy
10:00 AM 69.8 °F - 60.8 °F 73% 30.18 in 6.2 mi ENE 12.7 mph - N/A   Overcast
11:00 AM 71.6 °F - 60.8 °F 69% 30.18 in 6.2 mi ENE 10.4 mph - N/A   Mostly Cloudy
12:00 PM 75.2 °F - 62.6 °F 65% 30.15 in 6.2 mi East 8.1 mph - N/A   Mostly Cloudy
1:00 PM 77.0 °F - 59.0 °F 54% 30.12 in 6.2 mi NE 8.1 mph - N/A   Scattered Clouds
2:00 PM 80.6 °F 81.5 °F 60.8 °F 51% 30.09 in 6.2 mi Variable 5.8 mph - N/A   Scattered Clouds
3:00 PM 82.4 °F 82.0 °F 57.2 °F 42% 30.06 in 6.2 mi North 4.6 mph - N/A   Scattered Clouds
4:00 PM 82.4 °F 82.0 °F 57.2 °F 42% 30.06 in 6.2 mi SE 3.5 mph - N/A   Scattered Clouds
5:00 PM 84.2 °F 83.0 °F 55.4 °F 37% 30.04 in 6.2 mi South 4.6 mph - N/A   Scattered Clouds
6:00 PM 84.2 °F - 51.8 °F 33% 30.04 in 6.2 mi East 3.5 mph - N/A   Partly Cloudy
7:00 PM 78.8 °F - 55.4 °F 44% 30.06 in 6.2 mi East 3.5 mph - N/A   Partly Cloudy
8:00 PM 75.2 °F - 55.4 °F 50% 30.09 in 6.2 mi East 12.7 mph - N/A   Partly Cloudy
9:00 PM 71.6 °F - 57.2 °F 60% 30.12 in - ENE 10.4 mph - N/A   Clear
10:00 PM 71.6 °F - 55.4 °F 57% 30.15 in - East 8.1 mph - N/A   Clear
11:00 PM 69.8 °F - 57.2 °F 64% 30.15 in - East 6.9 mph - N/A   Clear